sat.trackr.live / text

‹ back to catalog

STARLINK-36258

NORAD 67104 · 2025-299C

PAYLOAD ACTIVE UNKNOWN

§ Identity

Operator
Country
US
Launch date
2025-12-15
Launch site
AFETR
Launch vehicle
Mass (kg)
RCS (m²)

Purposes: comms

External: N2YO · Heavens-Above · Gunter

§ Orbital elements

Epoch: 2026-05-25T04:34:38.254656Z

Period
94.27 min
Inclination
43.0040°
Eccentricity
0.0003175
Mean motion
15.27598085 rev/d
Perigee alt
480.8 km
Apogee alt
485.2 km
Semi-major
6,861.1 km
B*
9.6147e-4
RAAN
97.1615°
Arg perigee
243.7321°
Mean anomaly
116.3205°
Rev number
2,481

§ Raw data

STARLINK-362581 67104U 25299C   26145.19072054  .00026307  00000+0  96147-3 0  99982 67104  43.0040  97.1615 0003175 243.7321 116.3205 15.27598085 24811

JSON: /api/v1/satellites/67104 · /tle

For live sub-satellite position, see the globe view (requires WebGL).

§ Visibility from observer

Set your observer location to see the next 7 days of passes ≥ 10°. The values pass through the URL so the page stays shareable.

No JS? Fill the form by hand. The geolocation button needs JavaScript.